Weather Roundup
Issued by NWS

Home | Current Version | Previous Version | Text Only | Print | Product List | Glossary On
Versions: 1 2 3 4 5 6 7 8 9 10 11 12 13 14 15 16 17 18 19 20 21 22 23 24 25 26 27 28 29 30 31 32 33 34 35 36 37 38 39 40 41 42 43 44 45 46 47 48 49 50
000
NZUS93 KARX 301010
HRRWXR

CURRENT HOURLY OBSERVATIONS ACROSS
MUCH OF THE UPPER MISSISSIPPI VALLEY
NATIONAL WEATHER SERVICE LA CROSSE WI
500 AM CDT TUE SEP 30 2014


...SOUTHEAST MINNESOTA...


CITY           SKY/WX    TMP DP  RH WIND       PRES   REMARKS
ROCHESTER      CLOUDY    43  42  97 E7        30.08S
ROCHESTER/MAYO CLOUDY    42  40  91 E8        30.09R
WINONA         CLOUDY    43  39  87 E8        30.12S
AUSTIN         CLOUDY    45  43  93 E12       30.05F
ALBERT LEA     MOCLDY    45  45 100 E10       30.03F
DODGE CENTER   CLOUDY    43  43 100 E13       30.07S
PRESTON        CLOUDY    43  41  93 E6        30.08S
OWATONNA       CLOUDY    43  39  87 E15       30.06F
FARIBAULT      CLOUDY    45  39  81 E9        30.08S
$$

...ELSEWHERE IN MINNESOTA...


CITY           SKY/WX    TMP DP  RH WIND       PRES   REMARKS
MINNEAPOLIS    CLOUDY    43  39  86 E9        30.10S
INTNL FALLS    CLOUDY    43  40  89 SE8       30.12S
DULUTH         CLOUDY    42  38  85 E12       30.13F
RED WING       CLOUDY    43  37  81 E8        30.10S
REDWOOD FALLS  MOCLDY    44  42  93 E12       30.02F
MANKATO        PTCLDY    43  37  81 E14       30.04F
WORTHINGTON    PTCLDY    48  46  93 E10       29.98F
FAIRMONT       PTCLDY    46  41  81 E7        30.01F
$$

...SOUTHWEST WISCONSIN...


CITY           SKY/WX    TMP DP  RH WIND       PRES   REMARKS
LA CROSSE      CLOUDY    48  42  80 NE7       30.10F
PRAIRIE DU CHI CLOUDY    51  44  79 NE5       30.07S
BOSCOBEL       CLOUDY    51  46  83 E7        30.09S
LONE ROCK      CLOUDY    50  42  74 E7        30.10S
PLATTEVILLE    CLOUDY    48  46  92 NE10      30.08S
FORT MC COY    CLOUDY    44  40  88 E7        30.12S
CAMP DOUGLAS   CLOUDY    42  42 100 E8        30.12S
VIROQUA        CLOUDY    45  45 100 E6        30.09S
WIS DELLS      CLOUDY    43  40  88 NE5       30.10S
$$

...ELSEWHERE IN WISCONSIN...


CITY           SKY/WX    TMP DP  RH WIND       PRES   REMARKS
MILWAUKEE      CLOUDY    45  40  82 N10G18    30.07F
MADISON        CLOUDY    45  40  82 NE9       30.09S
GREEN BAY      CLOUDY    43  39  86 N10       30.11R
EAU CLAIRE     CLOUDY    43  37  79 E8        30.12S
BLACK RVR FLS  CLOUDY    43  38  84 NE6       30.12F
MEDFORD        CLOUDY    37  35  91 NE8       30.12F WCI  31
WAUSAU         CLOUDY    40  36  86 VRB3      30.12S
WIS RAPIDS     CLOUDY    41  36  82 E9        30.13F
MARSHFIELD     CLOUDY    41  36  82 NE9       30.12S
RICE LAKE      CLOUDY    41  37  85 E7        30.14S
$$

...NORTHEAST IOWA...


CITY           SKY/WX    TMP DP  RH WIND       PRES   REMARKS
DECORAH        CLOUDY    46  45  93 E7G14     30.06F
MASON CITY     CLOUDY    49  47  93 E10G17    30.03F
CHARLES CITY   CLOUDY    48  46  93 E14G21    30.04F
OELWEIN        CLOUDY    52  50  93 E12       30.04F
$$

...ELSEWHERE IN IOWA...


CITY           SKY/WX    TMP DP  RH WIND       PRES   REMARKS
DES MOINES     CLOUDY    58  54  86 E6        29.97F
IOWA CITY      CLOUDY    55  52  89 E8        30.04R
FORT DODGE     MOCLDY    52  48  87 E8        29.99F
$$

...NORTHERN ILLINOIS...


CITY           SKY/WX    TMP DP  RH WIND       PRES   REMARKS
CHICAGO-OHARE  DRIZZLE   49  46  90 N10       30.04S
CHICAGO-MIDWAY CLOUDY    55  48  77 N15G22    30.03S
MOLINE         NOT AVBL
ROCKFORD       DRIZZLE   50  46  86 NE8       30.08S
PEORIA         CLOUDY    60  54  80 E12       30.00S
$$

NOTE: "FAIR" INDICATES FEW OR NO CLOUDS BELOW 12,000 FEET WITH NO
SIGNIFICANT WEATHER AND/OR OBSTRUCTIONS TO VISIBILITY. WIND
SPEEDS ARE IN MILES-PER-HOUR.



USA.gov is the U.S. government's official web portal to all federal, state and local government web resources and services.